Location: Wavehorne
(51.0500°N, 0.8333°E)
Time: 20:24:57
(UTC+00:00)

Helios 1B rocket - Pass Details

Date: 20 June 2021
Orbit: 573 x 583 km, 98.2° (Epoch: 23 July)

Event Time Altitude Azimuth Distance (km) Brightness Sun altitude
Rises 02:19:53 0° 11° (N) 2,803 7.4 -9.3°
Reaches altitude 10° 02:22:04 10° 7° (N) 1,898 6.2 -9.1°
Maximum altitude 02:26:05 55° 289° (WNW) 698 2.7 -8.7°
Enters shadow 02:29:54 11° 213° (SSW) 1,816 4.3 -8.4°
